Time,TemperatureF,DewpointF,PressureIn,WindDirection,WindDirectionDegrees,WindSpeedMPH,WindSpeedGustMPH,Humidity,HourlyPrecipIn,Conditions,Clouds,dailyrainin,SoftwareType,DateUTC
2013-10-25 00:01:00,62.5,60.3,30.20,NW,311,0.0,0.0,93,0.00,,,0.00,WUHU216PEETBRO,2013-10-25 04:01:00,
2013-10-25 00:06:00,62.4,60.3,30.20,NW,311,0.0,0.0,93,0.00,,,0.00,WUHU216PEETBRO,2013-10-25 04:06:00,
2013-10-25 00:11:00,62.5,60.4,30.20,NW,311,0.0,0.0,93,0.00,,,0.00,WUHU216PEETBRO,2013-10-25 04:11:00,
2013-10-25 00:16:00,62.5,60.5,30.20,NW,311,0.0,0.0,93,0.00,,,0.00,WUHU216PEETBRO,2013-10-25 04:16:00,
2013-10-25 00:21:00,62.3,60.4,30.20,NW,311,0.0,0.0,94,0.00,,,0.00,WUHU216PEETBRO,2013-10-25 04:21:00,
2013-10-25 00:26:00,62.3,60.5,30.20,NW,311,0.0,0.0,94,0.00,,,0.00,WUHU216PEETBRO,2013-10-25 04:26:00,
2013-10-25 00:31:00,62.2,60.4,30.21,NW,311,0.0,0.0,94,0.00,,,0.00,WUHU216PEETBRO,2013-10-25 04:31:00,
2013-10-25 00:36:00,62.1,60.4,30.20,NW,311,0.0,0.0,94,0.00,,,0.00,WUHU216PEETBRO,2013-10-25 04:36:00,
2013-10-25 00:41:00,61.9,60.2,30.20,NW,311,0.0,0.0,94,0.00,,,0.00,WUHU216PEETBRO,2013-10-25 04:41:00,
2013-10-25 00:46:00,61.9,60.3,30.20,NW,311,0.0,0.0,95,0.00,,,0.00,WUHU216PEETBRO,2013-10-25 04:46:00,
2013-10-25 00:51:00,61.7,60.2,30.20,NW,311,0.0,0.0,95,0.00,,,0.00,WUHU216PEETBRO,2013-10-25 04:51:00,
2013-10-25 00:56:00,61.7,60.2,30.21,NW,311,0.0,0.0,95,0.00,,,0.00,WUHU216PEETBRO,2013-10-25 04:56:00,
2013-10-25 01:01:00,61.6,60.2,30.21,NW,311,0.0,0.0,95,0.00,,,0.00,WUHU216PEETBRO,2013-10-25 05:01:00,
2013-10-25 01:06:00,61.5,60.1,30.21,NW,311,0.0,0.0,95,0.00,,,0.00,WUHU216PEETBRO,2013-10-25 05:06:00,
2013-10-25 01:11:00,61.5,60.2,30.20,NW,311,0.0,0.0,96,0.00,,,0.00,WUHU216PEETBRO,2013-10-25 05:11:00,
2013-10-25 01:16:00,61.4,60.1,30.20,NW,311,0.0,0.0,96,0.00,,,0.00,WUHU216PEETBRO,2013-10-25 05:16:00,
2013-10-25 01:21:00,61.3,60.0,30.20,NW,311,0.0,0.0,96,0.00,,,0.00,WUHU216PEETBRO,2013-10-25 05:21:00,
2013-10-25 01:26:00,61.2,59.9,30.20,NW,311,0.0,0.0,96,0.00,,,0.00,WUHU216PEETBRO,2013-10-25 05:26:00,
2013-10-25 01:31:00,61.2,60.0,30.20,NW,311,0.0,0.0,96,0.00,,,0.00,WUHU216PEETBRO,2013-10-25 05:31:00,
2013-10-25 01:36:00,61.1,59.9,30.20,NW,311,0.0,0.0,96,0.00,,,0.00,WUHU216PEETBRO,2013-10-25 05:36:00,
2013-10-25 01:41:00,61.1,59.9,30.20,NW,311,0.0,0.0,96,0.00,,,0.00,WUHU216PEETBRO,2013-10-25 05:41:00,
2013-10-25 01:46:00,61.0,59.8,30.20,NW,311,0.0,0.0,96,0.00,,,0.00,WUHU216PEETBRO,2013-10-25 05:46:00,
2013-10-25 01:51:00,61.0,59.8,30.20,NW,311,0.0,0.0,96,0.00,,,0.00,WUHU216PEETBRO,2013-10-25 05:51:00,
2013-10-25 01:56:00,60.9,59.7,30.20,NW,311,0.0,0.0,96,0.00,,,0.00,WUHU216PEETBRO,2013-10-25 05:56:00,
2013-10-25 02:01:00,60.9,59.7,30.20,NW,311,0.0,0.0,96,0.00,,,0.00,WUHU216PEETBRO,2013-10-25 06:01:00,
2013-10-25 02:06:00,60.8,59.7,30.20,NW,311,0.0,0.0,96,0.00,,,0.00,WUHU216PEETBRO,2013-10-25 06:06:00,
2013-10-25 02:11:00,60.7,59.6,30.20,NW,311,0.0,0.0,96,0.00,,,0.00,WUHU216PEETBRO,2013-10-25 06:11:00,
2013-10-25 02:16:00,60.6,59.5,30.20,NW,311,0.0,0.0,96,0.00,,,0.00,WUHU216PEETBRO,2013-10-25 06:16:00,
2013-10-25 02:21:00,60.7,59.6,30.20,NW,311,0.0,0.0,96,0.00,,,0.00,WUHU216PEETBRO,2013-10-25 06:21:00,
2013-10-25 02:26:00,60.6,59.5,30.20,NW,311,0.0,0.0,96,0.00,,,0.00,WUHU216PEETBRO,2013-10-25 06:26:00,
2013-10-25 02:31:00,60.5,59.4,30.20,NW,311,0.0,0.0,96,0.00,,,0.00,WUHU216PEETBRO,2013-10-25 06:31:00,
2013-10-25 02:36:00,60.5,59.5,30.20,WNW,287,0.0,4.7,97,0.00,,,0.00,WUHU216PEETBRO,2013-10-25 06:36:00,
2013-10-25 02:41:00,60.4,59.4,30.19,WNW,287,0.0,4.7,97,0.00,,,0.00,WUHU216PEETBRO,2013-10-25 06:41:00,
2013-10-25 02:46:00,60.4,59.4,30.20,WNW,287,0.0,0.0,97,0.00,,,0.00,WUHU216PEETBRO,2013-10-25 06:46:00,
2013-10-25 02:51:00,60.3,59.3,30.19,WNW,287,0.0,0.0,97,0.00,,,0.00,WUHU216PEETBRO,2013-10-25 06:51:00,
2013-10-25 02:56:00,60.2,59.2,30.19,WNW,303,0.0,2.9,97,0.00,,,0.00,WUHU216PEETBRO,2013-10-25 06:56:00,
2013-10-25 03:01:00,60.2,59.3,30.19,WNW,303,0.0,2.9,97,0.00,,,0.00,WUHU216PEETBRO,2013-10-25 07:01:00,
2013-10-25 03:06:00,60.1,59.2,30.19,NW,320,0.0,3.2,97,0.00,,,0.00,WUHU216PEETBRO,2013-10-25 07:06:00,
2013-10-25 03:11:00,60.0,59.1,30.19,NW,320,0.0,3.2,97,0.00,,,0.00,WUHU216PEETBRO,2013-10-25 07:11:00,
2013-10-25 03:16:00,59.9,59.0,30.19,NW,320,0.0,0.0,97,0.00,,,0.00,WUHU216PEETBRO,2013-10-25 07:16:00,
2013-10-25 03:21:00,59.9,59.0,30.19,NW,320,0.0,0.0,97,0.00,,,0.00,WUHU216PEETBRO,2013-10-25 07:21:00,
2013-10-25 03:26:00,59.8,58.9,30.19,NW,310,0.0,0.0,97,0.00,,,0.00,WUHU216PEETBRO,2013-10-25 07:26:00,
2013-10-25 03:31:00,59.7,58.9,30.19,NW,310,0.0,0.0,97,0.00,,,0.00,WUHU216PEETBRO,2013-10-25 07:31:00,
2013-10-25 03:36:00,59.7,58.9,30.19,NW,310,0.0,0.0,97,0.00,,,0.00,WUHU216PEETBRO,2013-10-25 07:36:00,
2013-10-25 03:41:00,59.6,58.8,30.19,NW,310,0.0,0.0,97,0.00,,,0.00,WUHU216PEETBRO,2013-10-25 07:41:00,
2013-10-25 03:46:00,59.7,59.0,30.19,NW,310,0.0,0.0,98,0.00,,,0.00,WUHU216PEETBRO,2013-10-25 07:46:00,
2013-10-25 03:51:00,59.6,58.9,30.19,NW,310,0.0,0.0,98,0.00,,,0.00,WUHU216PEETBRO,2013-10-25 07:51:00,
2013-10-25 03:56:00,59.6,58.9,30.19,NW,310,0.0,0.0,98,0.00,,,0.00,WUHU216PEETBRO,2013-10-25 07:56:00,
2013-10-25 04:01:00,59.5,58.8,30.19,NW,317,0.0,3.2,98,0.00,,,0.00,WUHU216PEETBRO,2013-10-25 08:01:00,
2013-10-25 04:06:00,59.4,58.7,30.19,NW,317,0.0,3.2,98,0.00,,,0.00,WUHU216PEETBRO,2013-10-25 08:06:00,
2013-10-25 04:11:00,59.5,58.9,30.20,NW,317,0.0,0.0,98,0.00,,,0.00,WUHU216PEETBRO,2013-10-25 08:11:00,
2013-10-25 04:16:00,59.5,58.9,30.19,NW,317,0.0,0.0,98,0.00,,,0.00,WUHU216PEETBRO,2013-10-25 08:16:00,
2013-10-25 04:21:00,59.4,58.8,30.20,NW,317,0.0,0.0,98,0.00,,,0.00,WUHU216PEETBRO,2013-10-25 08:21:00,
2013-10-25 04:27:00,59.4,58.8,30.20,NW,317,0.0,0.0,98,0.00,,,0.00,WUHU216PEETBRO,2013-10-25 08:27:00,
2013-10-25 04:32:00,59.4,58.8,30.20,NW,317,0.0,0.0,98,0.00,,,0.00,WUHU216PEETBRO,2013-10-25 08:32:00,
2013-10-25 04:37:00,59.4,58.8,30.19,NW,317,0.0,0.0,98,0.00,,,0.00,WUHU216PEETBRO,2013-10-25 08:37:00,
2013-10-25 04:42:00,59.4,58.9,30.20,NW,317,0.0,0.0,98,0.00,,,0.00,WUHU216PEETBRO,2013-10-25 08:42:00,
2013-10-25 04:47:00,59.5,59.0,30.20,NW,317,0.0,0.0,98,0.00,,,0.00,WUHU216PEETBRO,2013-10-25 08:47:00,
2013-10-25 04:52:00,59.4,58.9,30.20,NW,317,0.0,0.0,98,0.00,,,0.00,WUHU216PEETBRO,2013-10-25 08:52:00,
2013-10-25 04:57:00,59.3,58.8,30.20,NW,317,0.0,0.0,98,0.00,,,0.00,WUHU216PEETBRO,2013-10-25 08:57:00,
2013-10-25 05:02:00,59.3,58.8,30.20,NW,317,0.0,0.0,98,0.00,,,0.00,WUHU216PEETBRO,2013-10-25 09:02:00,
2013-10-25 05:07:00,59.3,58.8,30.20,NW,317,0.0,0.0,98,0.00,,,0.00,WUHU216PEETBRO,2013-10-25 09:07:00,
2013-10-25 05:12:00,59.2,58.7,30.20,NW,317,0.0,0.0,98,0.00,,,0.00,WUHU216PEETBRO,2013-10-25 09:12:00,
2013-10-25 05:17:00,59.2,58.7,30.20,NW,317,0.0,0.0,98,0.00,,,0.00,WUHU216PEETBRO,2013-10-25 09:17:00,
2013-10-25 05:22:00,59.0,58.6,30.20,NW,317,0.0,0.0,99,0.00,,,0.00,WUHU216PEETBRO,2013-10-25 09:22:00,
2013-10-25 05:27:00,59.0,58.6,30.20,NW,317,0.0,0.0,99,0.00,,,0.00,WUHU216PEETBRO,2013-10-25 09:27:00,
2013-10-25 05:32:00,59.0,58.6,30.21,NW,317,0.0,0.0,99,0.00,,,0.00,WUHU216PEETBRO,2013-10-25 09:32:00,
2013-10-25 05:37:00,59.0,58.6,30.21,NW,317,0.0,0.0,99,0.00,,,0.00,WUHU216PEETBRO,2013-10-25 09:37:00,
2013-10-25 05:42:00,58.9,58.5,30.21,NW,317,0.0,0.0,99,0.00,,,0.00,WUHU216PEETBRO,2013-10-25 09:42:00,
2013-10-25 05:47:00,58.8,58.4,30.21,NW,317,0.0,0.0,99,0.00,,,0.00,WUHU216PEETBRO,2013-10-25 09:47:00,
2013-10-25 05:52:00,58.8,58.4,30.21,NW,317,0.0,0.0,99,0.00,,,0.00,WUHU216PEETBRO,2013-10-25 09:52:00,
2013-10-25 05:57:00,58.8,58.4,30.21,NW,317,0.0,0.0,99,0.00,,,0.00,WUHU216PEETBRO,2013-10-25 09:57:00,
2013-10-25 06:02:00,58.8,58.5,30.21,NW,317,0.0,0.0,99,0.00,,,0.00,WUHU216PEETBRO,2013-10-25 10:02:00,
2013-10-25 06:07:00,58.7,58.4,30.22,NW,317,0.0,0.0,99,0.00,,,0.00,WUHU216PEETBRO,2013-10-25 10:07:00,
2013-10-25 06:12:00,58.7,58.4,30.22,NW,317,0.0,0.0,99,0.00,,,0.00,WUHU216PEETBRO,2013-10-25 10:12:00,
2013-10-25 06:17:00,58.6,58.3,30.22,NW,317,0.0,0.0,99,0.00,,,0.00,WUHU216PEETBRO,2013-10-25 10:17:00,
2013-10-25 06:22:00,58.7,58.5,30.22,NW,317,0.0,0.0,99,0.00,,,0.00,WUHU216PEETBRO,2013-10-25 10:22:00,
2013-10-25 06:27:00,58.7,58.4,30.22,NW,317,0.0,0.0,99,0.00,,,0.00,WUHU216PEETBRO,2013-10-25 10:27:00,
2013-10-25 06:32:00,58.7,58.4,30.22,NW,317,0.0,0.0,99,0.00,,,0.00,WUHU216PEETBRO,2013-10-25 10:32:00,
2013-10-25 06:37:00,58.6,58.4,30.22,NW,317,0.0,0.0,99,0.00,,,0.00,WUHU216PEETBRO,2013-10-25 10:37:00,
2013-10-25 06:42:00,58.6,58.4,30.22,NW,317,0.0,0.0,99,0.00,,,0.00,WUHU216PEETBRO,2013-10-25 10:42:00,
2013-10-25 06:47:00,58.6,58.4,30.23,NW,317,0.0,0.0,99,0.00,,,0.00,WUHU216PEETBRO,2013-10-25 10:47:00,
2013-10-25 06:52:00,58.6,58.4,30.23,NW,317,0.0,0.0,99,0.00,,,0.00,WUHU216PEETBRO,2013-10-25 10:52:00,
2013-10-25 06:57:00,58.6,58.4,30.23,NW,317,0.0,0.0,99,0.00,,,0.00,WUHU216PEETBRO,2013-10-25 10:57:00,
2013-10-25 07:02:00,58.7,58.5,30.23,NW,317,0.0,0.0,99,0.00,,,0.00,WUHU216PEETBRO,2013-10-25 11:02:00,
2013-10-25 07:07:00,58.7,58.5,30.23,NW,317,0.0,0.0,99,0.00,,,0.00,WUHU216PEETBRO,2013-10-25 11:07:00,
2013-10-25 07:12:00,58.6,58.4,30.23,NW,317,0.0,0.0,99,0.00,,,0.00,WUHU216PEETBRO,2013-10-25 11:12:00,
2013-10-25 07:17:00,58.7,58.6,30.23,NW,317,0.0,0.0,100,0.00,,,0.00,WUHU216PEETBRO,2013-10-25 11:17:00,
2013-10-25 07:22:00,58.7,58.6,30.24,NW,317,0.0,0.0,100,0.00,,,0.00,WUHU216PEETBRO,2013-10-25 11:22:00,
2013-10-25 07:27:00,58.7,58.6,30.24,NW,317,0.0,0.0,100,0.00,,,0.00,WUHU216PEETBRO,2013-10-25 11:27:00,
2013-10-25 07:32:00,58.7,58.6,30.24,NW,317,0.0,0.0,100,0.00,,,0.00,WUHU216PEETBRO,2013-10-25 11:32:00,
2013-10-25 07:37:00,58.6,58.5,30.24,NW,317,0.0,0.0,100,0.00,,,0.00,WUHU216PEETBRO,2013-10-25 11:37:00,
2013-10-25 07:42:00,58.6,58.5,30.23,NW,317,0.0,0.0,100,0.00,,,0.00,WUHU216PEETBRO,2013-10-25 11:42:00,
2013-10-25 07:47:00,58.6,58.5,30.24,NW,317,0.0,0.0,100,0.00,,,0.00,WUHU216PEETBRO,2013-10-25 11:47:00,
2013-10-25 07:52:00,58.8,58.7,30.24,NW,317,0.0,0.0,100,0.00,,,0.00,WUHU216PEETBRO,2013-10-25 11:52:00,
2013-10-25 07:57:00,59.0,58.9,30.24,NW,317,0.0,0.0,100,0.00,,,0.00,WUHU216PEETBRO,2013-10-25 11:57:00,
2013-10-25 08:02:00,59.2,59.1,30.24,West,266,0.0,0.0,100,0.00,,,0.00,WUHU216PEETBRO,2013-10-25 12:02:00,
2013-10-25 08:07:00,59.5,59.4,30.25,WNW,292,0.0,5.5,100,0.00,,,0.00,WUHU216PEETBRO,2013-10-25 12:07:00,
2013-10-25 08:12:00,59.8,59.7,30.25,North,352,0.0,5.5,100,0.00,,,0.00,WUHU216PEETBRO,2013-10-25 12:12:00,
2013-10-25 08:17:00,60.2,60.0,30.25,WNW,283,0.0,5.5,99,0.00,,,0.00,WUHU216PEETBRO,2013-10-25 12:17:00,
2013-10-25 08:22:00,60.5,60.2,30.25,WNW,283,0.0,5.5,99,0.00,,,0.00,WUHU216PEETBRO,2013-10-25 12:22:00,
2013-10-25 08:27:00,60.9,60.5,30.25,WNW,302,0.0,5.3,99,0.00,,,0.00,WUHU216PEETBRO,2013-10-25 12:27:00,
2013-10-25 08:32:00,61.3,60.9,30.25,NW,313,5.3,7.0,99,0.00,,,0.00,WUHU216PEETBRO,2013-10-25 12:32:00,
2013-10-25 08:37:00,61.7,61.1,30.25,NW,309,5.6,7.0,98,0.00,,,0.00,WUHU216PEETBRO,2013-10-25 12:37:00,
2013-10-25 08:42:00,62.2,61.5,30.25,NNW,345,5.3,7.8,98,0.00,,,0.00,WUHU216PEETBRO,2013-10-25 12:42:00,
2013-10-25 08:47:00,62.7,61.8,30.26,NW,310,5.1,7.8,97,0.00,,,0.00,WUHU216PEETBRO,2013-10-25 12:47:00,
2013-10-25 08:52:00,63.2,62.2,30.25,NW,314,3.4,6.6,97,0.00,,,0.00,WUHU216PEETBRO,2013-10-25 12:52:00,
2013-10-25 08:57:00,63.8,62.5,30.25,NNW,335,5.1,6.6,96,0.00,,,0.00,WUHU216PEETBRO,2013-10-25 12:57:00,
2013-10-25 09:02:00,64.4,62.9,30.25,West,280,3.4,6.6,95,0.00,,,0.00,WUHU216PEETBRO,2013-10-25 13:02:00,
2013-10-25 09:07:00,65.0,63.3,30.26,WNW,285,0.0,6.6,94,0.00,,,0.00,WUHU216PEETBRO,2013-10-25 13:07:00,
2013-10-25 09:12:00,65.6,63.4,30.26,NW,316,4.3,6.0,93,0.00,,,0.00,WUHU216PEETBRO,2013-10-25 13:12:00,
2013-10-25 09:17:00,66.2,63.5,30.26,WSW,242,0.0,7.6,91,0.00,,,0.00,WUHU216PEETBRO,2013-10-25 13:17:00,
2013-10-25 09:22:00,66.7,62.8,30.26,NNW,337,7.4,9.1,87,0.00,,,0.00,WUHU216PEETBRO,2013-10-25 13:22:00,
2013-10-25 09:27:00,67.3,62.3,30.26,North,354,0.0,9.3,84,0.00,,,0.00,WUHU216PEETBRO,2013-10-25 13:27:00,
2013-10-25 09:32:00,68.0,61.4,30.26,NNW,347,0.0,9.3,79,0.00,,,0.00,WUHU216PEETBRO,2013-10-25 13:32:00,
2013-10-25 09:37:00,68.6,60.0,30.26,NNW,345,5.2,8.8,74,0.00,,,0.00,WUHU216PEETBRO,2013-10-25 13:37:00,
2013-10-25 09:42:00,69.2,57.8,30.27,NW,324,8.3,10.7,67,0.00,,,0.00,WUHU216PEETBRO,2013-10-25 13:42:00,
2013-10-25 09:47:00,69.6,57.6,30.27,NNW,338,7.5,10.7,65,0.00,,,0.00,WUHU216PEETBRO,2013-10-25 13:47:00,
2013-10-25 09:52:00,70.2,55.8,30.27,NW,324,4.8,12.1,60,0.00,,,0.00,WUHU216PEETBRO,2013-10-25 13:52:00,
2013-10-25 09:57:00,70.7,56.3,30.27,North,354,6.5,12.1,60,0.00,,,0.00,WUHU216PEETBRO,2013-10-25 13:57:00,
2013-10-25 10:02:00,71.1,55.5,30.27,NNW,335,4.8,10.8,58,0.00,,,0.00,WUHU216PEETBRO,2013-10-25 14:02:00,
2013-10-25 10:07:00,71.5,54.5,30.27,WNW,296,5.7,11.7,55,0.00,,,0.00,WUHU216PEETBRO,2013-10-25 14:07:00,
2013-10-25 10:12:00,71.8,54.6,30.27,NE,38,3.3,11.7,54,0.00,,,0.00,WUHU216PEETBRO,2013-10-25 14:12:00,
2013-10-25 10:17:00,72.1,52.5,30.27,NNW,328,7.6,11.4,50,0.00,,,0.00,WUHU216PEETBRO,2013-10-25 14:17:00,
2013-10-25 10:22:00,72.3,53.1,30.26,NW,307,2.6,11.4,51,0.00,,,0.00,WUHU216PEETBRO,2013-10-25 14:22:00,
2013-10-25 10:27:00,72.4,51.4,30.26,WNW,299,2.1,12.4,48,0.00,,,0.00,WUHU216PEETBRO,2013-10-25 14:27:00,
2013-10-25 10:32:00,72.6,51.5,30.27,NW,321,8.8,12.4,47,0.00,,,0.00,WUHU216PEETBRO,2013-10-25 14:32:00,
2013-10-25 10:37:00,72.8,51.7,30.27,NW,309,5.2,10.5,48,0.00,,,0.00,WUHU216PEETBRO,2013-10-25 14:37:00,
2013-10-25 10:42:00,73.0,51.0,30.27,NW,323,7.0,11.0,46,0.00,,,0.00,WUHU216PEETBRO,2013-10-25 14:42:00,
2013-10-25 10:47:00,73.4,51.1,30.27,NNW,334,9.8,11.2,46,0.00,,,0.00,WUHU216PEETBRO,2013-10-25 14:47:00,
2013-10-25 10:52:00,73.8,50.9,30.27,NW,323,3.0,11.2,45,0.00,,,0.00,WUHU216PEETBRO,2013-10-25 14:52:00,
2013-10-25 10:57:00,74.3,50.9,30.27,WNW,287,1.6,9.4,44,0.00,,,0.00,WUHU216PEETBRO,2013-10-25 14:57:00,
2013-10-25 11:02:00,74.7,50.6,30.27,West,273,3.4,13.2,43,0.00,,,0.00,WUHU216PEETBRO,2013-10-25 15:02:00,
2013-10-25 11:07:00,74.9,50.1,30.27,NW,320,5.3,13.2,42,0.00,,,0.00,WUHU216PEETBRO,2013-10-25 15:07:00,
2013-10-25 11:12:00,74.8,49.7,30.27,NW,321,5.5,10.3,41,0.00,,,0.00,WUHU216PEETBRO,2013-10-25 15:12:00,
2013-10-25 11:17:00,75.0,49.7,30.27,NW,311,4.7,11.2,41,0.00,,,0.00,WUHU216PEETBRO,2013-10-25 15:17:00,
2013-10-25 11:22:00,75.4,49.9,30.27,NNW,348,0.0,11.2,41,0.00,,,0.00,WUHU216PEETBRO,2013-10-25 15:22:00,
2013-10-25 11:27:00,76.0,49.8,30.27,North,5,9.4,9.4,40,0.00,,,0.00,WUHU216PEETBRO,2013-10-25 15:27:00,
2013-10-25 11:32:00,76.7,48.8,30.27,North,0,3.5,9.4,38,0.00,,,0.00,WUHU216PEETBRO,2013-10-25 15:32:00,
2013-10-25 11:37:00,76.9,48.4,30.27,NW,307,0.0,9.5,37,0.00,,,0.00,WUHU216PEETBRO,2013-10-25 15:37:00,
2013-10-25 11:42:00,77.0,47.7,30.26,NNW,348,7.0,9.5,36,0.00,,,0.00,WUHU216PEETBRO,2013-10-25 15:42:00,
2013-10-25 11:47:00,77.1,47.6,30.27,NW,321,5.5,9.4,36,0.00,,,0.00,WUHU216PEETBRO,2013-10-25 15:47:00,
2013-10-25 11:52:00,77.2,47.3,30.26,NW,311,4.6,9.9,35,0.00,,,0.00,WUHU216PEETBRO,2013-10-25 15:52:00,
2013-10-25 11:57:00,77.3,47.7,30.26,NW,323,4.7,9.9,36,0.00,,,0.00,WUHU216PEETBRO,2013-10-25 15:57:00,
2013-10-25 12:02:00,77.3,47.4,30.26,WNW,302,8.6,10.9,35,0.00,,,0.00,WUHU216PEETBRO,2013-10-25 16:02:00,
2013-10-25 12:07:00,77.7,49.0,30.26,WNW,282,7.5,10.9,37,0.00,,,0.00,WUHU216PEETBRO,2013-10-25 16:07:00,
2013-10-25 12:12:00,78.2,48.6,30.26,WNW,296,0.0,9.4,36,0.00,,,0.00,WUHU216PEETBRO,2013-10-25 16:12:00,
2013-10-25 12:17:00,78.7,47.6,30.26,NNW,330,10.7,10.7,34,0.00,,,0.00,WUHU216PEETBRO,2013-10-25 16:17:00,
2013-10-25 12:22:00,78.4,47.6,30.25,WNW,297,5.5,10.7,34,0.00,,,0.00,WUHU216PEETBRO,2013-10-25 16:22:00,
2013-10-25 12:27:00,78.2,49.0,30.25,West,265,4.5,9.8,36,0.00,,,0.00,WUHU216PEETBRO,2013-10-25 16:27:00,
2013-10-25 12:32:00,78.4,48.9,30.25,NNE,28,0.0,8.7,36,0.00,,,0.00,WUHU216PEETBRO,2013-10-25 16:32:00,
2013-10-25 12:37:00,78.9,49.2,30.24,North,355,7.1,8.7,36,0.00,,,0.00,WUHU216PEETBRO,2013-10-25 16:37:00,
2013-10-25 12:42:00,79.1,48.9,30.24,NNW,337,7.6,10.6,35,0.00,,,0.00,WUHU216PEETBRO,2013-10-25 16:42:00,
2013-10-25 12:47:00,79.3,50.0,30.24,NNW,344,8.5,11.1,36,0.00,,,0.00,WUHU216PEETBRO,2013-10-25 16:47:00,
2013-10-25 12:52:00,79.4,49.1,30.24,NW,317,6.1,11.1,35,0.00,,,0.00,WUHU216PEETBRO,2013-10-25 16:52:00,
2013-10-25 12:57:00,79.2,49.5,30.24,NNW,347,5.2,10.9,36,0.00,,,0.00,WUHU216PEETBRO,2013-10-25 16:57:00,
2013-10-25 13:02:00,79.2,49.6,30.24,NNW,338,0.0,10.9,36,0.00,,,0.00,WUHU216PEETBRO,2013-10-25 17:02:00,
2013-10-25 13:07:00,79.4,49.5,30.23,NNW,338,3.2,9.3,35,0.00,,,0.00,WUHU216PEETBRO,2013-10-25 17:07:00,
2013-10-25 13:12:00,79.7,49.6,30.23,NNW,341,7.1,8.8,35,0.00,,,0.00,WUHU216PEETBRO,2013-10-25 17:12:00,
2013-10-25 13:17:00,79.7,49.6,30.23,North,8,5.9,9.6,35,0.00,,,0.00,WUHU216PEETBRO,2013-10-25 17:17:00,
2013-10-25 13:22:00,80.0,50.1,30.23,NW,307,4.5,9.6,35,0.00,,,0.00,WUHU216PEETBRO,2013-10-25 17:22:00,
2013-10-25 13:27:00,80.3,49.9,30.23,NW,314,6.6,10.5,35,0.00,,,0.00,WUHU216PEETBRO,2013-10-25 17:27:00,
2013-10-25 13:32:00,80.5,49.6,30.23,SSW,197,5.7,10.5,34,0.00,,,0.00,WUHU216PEETBRO,2013-10-25 17:32:00,
2013-10-25 13:37:00,80.5,50.3,30.23,NNW,330,6.5,9.9,35,0.00,,,0.00,WUHU216PEETBRO,2013-10-25 17:37:00,
2013-10-25 13:42:00,80.5,50.7,30.22,NNW,347,4.9,11.8,36,0.00,,,0.00,WUHU216PEETBRO,2013-10-25 17:42:00,
2013-10-25 13:47:00,80.3,50.4,30.22,NW,313,5.1,11.8,36,0.00,,,0.00,WUHU216PEETBRO,2013-10-25 17:47:00,
2013-10-25 13:52:00,80.5,49.6,30.22,WNW,296,8.8,11.7,34,0.00,,,0.00,WUHU216PEETBRO,2013-10-25 17:52:00,
2013-10-25 13:57:00,80.3,49.8,30.22,NW,320,4.3,13.0,35,0.00,,,0.00,WUHU216PEETBRO,2013-10-25 17:57:00,
2013-10-25 14:02:00,80.1,50.0,30.22,North,354,8.0,13.0,35,0.00,,,0.00,WUHU216PEETBRO,2013-10-25 18:02:00,
2013-10-25 14:07:00,80.3,50.2,30.21,NNW,338,5.0,11.6,35,0.00,,,0.00,WUHU216PEETBRO,2013-10-25 18:07:00,
2013-10-25 14:12:00,80.5,50.3,30.21,North,359,6.2,11.6,35,0.00,,,0.00,WUHU216PEETBRO,2013-10-25 18:12:00,
2013-10-25 14:17:00,80.5,50.3,30.21,SW,217,5.1,11.0,35,0.00,,,0.00,WUHU216PEETBRO,2013-10-25 18:17:00,
2013-10-25 14:22:00,80.4,50.3,30.21,NW,304,5.9,11.0,35,0.00,,,0.00,WUHU216PEETBRO,2013-10-25 18:22:00,
2013-10-25 14:27:00,80.5,49.9,30.21,NW,313,7.0,11.3,35,0.00,,,0.00,WUHU216PEETBRO,2013-10-25 18:27:00,
2013-10-25 14:32:00,80.7,50.1,30.21,NW,326,0.0,11.3,35,0.00,,,0.00,WUHU216PEETBRO,2013-10-25 18:32:00,
2013-10-25 14:37:00,80.8,50.5,30.21,NNW,345,7.9,8.6,35,0.00,,,0.00,WUHU216PEETBRO,2013-10-25 18:37:00,
2013-10-25 14:42:00,80.7,51.2,30.21,WSW,245,0.0,10.2,36,0.00,,,0.00,WUHU216PEETBRO,2013-10-25 18:42:00,
2013-10-25 14:47:00,80.9,51.7,30.20,NW,306,6.9,10.2,37,0.00,,,0.00,WUHU216PEETBRO,2013-10-25 18:47:00,
2013-10-25 14:52:00,81.4,50.7,30.20,NNW,335,6.3,9.6,35,0.00,,,0.00,WUHU216PEETBRO,2013-10-25 18:52:00,
2013-10-25 14:57:00,81.6,50.9,30.20,NW,306,4.5,10.3,35,0.00,,,0.00,WUHU216PEETBRO,2013-10-25 18:57:00,
2013-10-25 15:02:00,81.4,50.9,30.20,NNW,337,4.3,10.4,35,0.00,,,0.00,WUHU216PEETBRO,2013-10-25 19:02:00,
2013-10-25 15:07:00,81.5,51.2,30.20,West,273,0.0,10.4,35,0.00,,,0.00,WUHU216PEETBRO,2013-10-25 19:07:00,
2013-10-25 15:12:00,81.3,50.6,30.20,North,7,6.6,11.1,35,0.00,,,0.00,WUHU216PEETBRO,2013-10-25 19:12:00,
2013-10-25 15:17:00,80.8,51.3,30.20,NNW,344,3.5,11.1,36,0.00,,,0.00,WUHU216PEETBRO,2013-10-25 19:17:00,
2013-10-25 15:22:00,81.2,50.5,30.20,North,359,5.3,9.6,35,0.00,,,0.00,WUHU216PEETBRO,2013-10-25 19:22:00,
2013-10-25 15:27:00,81.5,50.1,30.20,NW,309,0.0,9.6,34,0.00,,,0.00,WUHU216PEETBRO,2013-10-25 19:27:00,
2013-10-25 15:32:00,82.1,50.8,30.20,WNW,302,0.0,9.6,34,0.00,,,0.00,WUHU216PEETBRO,2013-10-25 19:32:00,
2013-10-25 15:37:00,82.5,49.9,30.20,NNW,341,5.0,9.2,32,0.00,,,0.00,WUHU216PEETBRO,2013-10-25 19:37:00,
2013-10-25 15:42:00,82.8,49.7,30.20,WNW,286,2.9,9.2,32,0.00,,,0.00,WUHU216PEETBRO,2013-10-25 19:42:00,
2013-10-25 15:47:00,82.5,49.0,30.20,NNW,337,8.3,10.3,31,0.00,,,0.00,WUHU216PEETBRO,2013-10-25 19:47:00,
2013-10-25 15:52:00,82.2,49.6,30.20,WNW,289,2.5,10.3,32,0.00,,,0.00,WUHU216PEETBRO,2013-10-25 19:52:00,
2013-10-25 15:57:00,82.2,49.5,30.20,North,0,5.2,9.5,32,0.00,,,0.00,WUHU216PEETBRO,2013-10-25 19:57:00,
2013-10-25 16:02:00,82.4,49.9,30.20,NW,326,5.8,9.5,33,0.00,,,0.00,WUHU216PEETBRO,2013-10-25 20:02:00,
2013-10-25 16:07:00,82.4,49.8,30.19,North,359,0.0,11.4,32,0.00,,,0.00,WUHU216PEETBRO,2013-10-25 20:07:00,
2013-10-25 16:12:00,82.6,50.4,30.19,NNW,337,6.3,11.4,33,0.00,,,0.00,WUHU216PEETBRO,2013-10-25 20:12:00,
2013-10-25 16:17:00,82.7,49.3,30.19,NW,326,0.0,8.2,32,0.00,,,0.00,WUHU216PEETBRO,2013-10-25 20:17:00,
2013-10-25 16:22:00,82.6,49.6,30.19,North,359,4.7,8.2,32,0.00,,,0.00,WUHU216PEETBRO,2013-10-25 20:22:00,
2013-10-25 16:27:00,82.5,49.3,30.19,NW,309,5.2,7.8,32,0.00,,,0.00,WUHU216PEETBRO,2013-10-25 20:27:00,
2013-10-25 16:32:00,82.4,49.2,30.20,NNW,328,0.0,8.4,32,0.00,,,0.00,WUHU216PEETBRO,2013-10-25 20:32:00,
2013-10-25 16:37:00,82.5,50.1,30.20,North,358,0.0,8.4,33,0.00,,,0.00,WUHU216PEETBRO,2013-10-25 20:37:00,
2013-10-25 16:42:00,82.4,49.9,30.19,WNW,290,0.0,7.0,33,0.00,,,0.00,WUHU216PEETBRO,2013-10-25 20:42:00,
2013-10-25 16:47:00,82.3,50.2,30.19,NE,56,3.4,6.5,33,0.00,,,0.00,WUHU216PEETBRO,2013-10-25 20:47:00,
2013-10-25 16:52:00,82.1,49.8,30.19,NW,311,6.4,6.4,33,0.00,,,0.00,WUHU216PEETBRO,2013-10-25 20:52:00,
2013-10-25 16:57:00,81.7,49.7,30.19,North,352,3.3,7.9,33,0.00,,,0.00,WUHU216PEETBRO,2013-10-25 20:57:00,
2013-10-25 17:02:00,81.4,49.9,30.20,West,280,0.0,7.9,34,0.00,,,0.00,WUHU216PEETBRO,2013-10-25 21:02:00,
2013-10-25 17:07:00,81.3,50.4,30.20,West,280,0.0,5.0,34,0.00,,,0.00,WUHU216PEETBRO,2013-10-25 21:07:00,
2013-10-25 17:12:00,81.4,50.4,30.20,NW,311,0.0,6.2,34,0.00,,,0.00,WUHU216PEETBRO,2013-10-25 21:12:00,
2013-10-25 17:17:00,81.4,50.4,30.20,North,11,3.4,6.2,34,0.00,,,0.00,WUHU216PEETBRO,2013-10-25 21:17:00,
2013-10-25 17:22:00,81.1,49.9,30.20,WNW,282,0.0,8.0,34,0.00,,,0.00,WUHU216PEETBRO,2013-10-25 21:22:00,
2013-10-25 17:27:00,80.7,50.4,30.20,WNW,302,0.0,8.0,35,0.00,,,0.00,WUHU216PEETBRO,2013-10-25 21:27:00,
2013-10-25 17:32:00,80.4,50.1,30.20,WNW,302,0.0,5.3,35,0.00,,,0.00,WUHU216PEETBRO,2013-10-25 21:32:00,
2013-10-25 17:37:00,80.3,49.5,30.20,NW,316,0.0,5.2,34,0.00,,,0.00,WUHU216PEETBRO,2013-10-25 21:37:00,
2013-10-25 17:42:00,80.3,49.8,30.20,NW,316,0.0,5.2,35,0.00,,,0.00,WUHU216PEETBRO,2013-10-25 21:42:00,
2013-10-25 17:47:00,80.1,50.5,30.20,North,351,4.5,6.3,36,0.00,,,0.00,WUHU216PEETBRO,2013-10-25 21:47:00,
2013-10-25 17:52:00,79.9,50.4,30.20,NNW,348,0.0,6.3,36,0.00,,,0.00,WUHU216PEETBRO,2013-10-25 21:52:00,
2013-10-25 17:57:00,79.7,50.6,30.20,NNW,328,0.0,5.9,36,0.00,,,0.00,WUHU216PEETBRO,2013-10-25 21:57:00,
2013-10-25 18:02:00,79.4,49.8,30.20,North,7,3.2,5.8,36,0.00,,,0.00,WUHU216PEETBRO,2013-10-25 22:02:00,
2013-10-25 18:07:00,79.1,50.1,30.20,North,1,0.0,5.5,37,0.00,,,0.00,WUHU216PEETBRO,2013-10-25 22:07:00,
2013-10-25 18:12:00,78.9,50.6,30.20,North,351,0.0,4.8,37,0.00,,,0.00,WUHU216PEETBRO,2013-10-25 22:12:00,
2013-10-25 18:17:00,78.7,52.8,30.20,North,359,3.0,7.5,41,0.00,,,0.00,WUHU216PEETBRO,2013-10-25 22:17:00,
2013-10-25 18:22:00,77.8,54.6,30.20,ENE,62,6.8,8.2,45,0.00,,,0.00,WUHU216PEETBRO,2013-10-25 22:22:00,
2013-10-25 18:27:00,76.9,55.3,30.21,NNE,28,5.6,8.2,47,0.00,,,0.00,WUHU216PEETBRO,2013-10-25 22:27:00,
2013-10-25 18:32:00,76.1,55.6,30.21,NE,39,4.5,10.8,49,0.00,,,0.00,WUHU216PEETBRO,2013-10-25 22:32:00,
2013-10-25 18:37:00,75.2,55.9,30.21,North,7,4.6,10.8,51,0.00,,,0.00,WUHU216PEETBRO,2013-10-25 22:37:00,
2013-10-25 18:42:00,74.6,56.6,30.21,NNE,31,8.1,9.5,53,0.00,,,0.00,WUHU216PEETBRO,2013-10-25 22:42:00,
2013-10-25 18:47:00,73.9,57.0,30.21,NE,43,6.6,11.2,55,0.00,,,0.00,WUHU216PEETBRO,2013-10-25 22:47:00,
2013-10-25 18:52:00,73.3,57.1,30.21,NE,35,5.3,11.2,57,0.00,,,0.00,WUHU216PEETBRO,2013-10-25 22:52:00,
2013-10-25 18:57:00,72.9,57.5,30.21,NE,35,6.7,9.9,58,0.00,,,0.00,WUHU216PEETBRO,2013-10-25 22:57:00,
2013-10-25 19:02:00,72.5,57.9,30.21,North,2,2.3,9.9,60,0.00,,,0.00,WUHU216PEETBRO,2013-10-25 23:02:00,
2013-10-25 19:07:00,72.1,57.9,30.22,North,4,3.4,9.8,61,0.00,,,0.00,WUHU216PEETBRO,2013-10-25 23:07:00,
2013-10-25 19:12:00,71.8,58.1,30.22,NE,47,5.9,6.8,62,0.00,,,0.00,WUHU216PEETBRO,2013-10-25 23:12:00,
2013-10-25 19:17:00,71.5,58.3,30.22,North,354,5.0,6.5,63,0.00,,,0.00,WUHU216PEETBRO,2013-10-25 23:17:00,
2013-10-25 19:22:00,71.2,58.4,30.22,NNW,340,0.0,6.5,64,0.00,,,0.00,WUHU216PEETBRO,2013-10-25 23:22:00,
2013-10-25 19:27:00,70.9,58.7,30.22,NNE,33,3.5,6.5,65,0.00,,,0.00,WUHU216PEETBRO,2013-10-25 23:27:00,
2013-10-25 19:32:00,70.5,58.8,30.22,NE,35,5.0,7.7,66,0.00,,,0.00,WUHU216PEETBRO,2013-10-25 23:32:00,
2013-10-25 19:37:00,70.2,59.0,30.22,NE,35,5.1,9.8,67,0.00,,,0.00,WUHU216PEETBRO,2013-10-25 23:37:00,
2013-10-25 19:42:00,69.9,59.1,30.23,North,4,5.2,10.3,68,0.00,,,0.00,WUHU216PEETBRO,2013-10-25 23:42:00,
2013-10-25 19:47:00,69.7,59.1,30.22,ENE,63,6.5,10.3,69,0.00,,,0.00,WUHU216PEETBRO,2013-10-25 23:47:00,
2013-10-25 19:52:00,69.5,59.2,30.22,North,359,5.5,8.3,69,0.00,,,0.00,WUHU216PEETBRO,2013-10-25 23:52:00,
2013-10-25 19:57:00,69.3,59.3,30.23,NNE,16,7.1,8.3,70,0.00,,,0.00,WUHU216PEETBRO,2013-10-25 23:57:00,
2013-10-25 20:02:00,69.1,59.4,30.23,NNE,18,5.2,8.0,71,0.00,,,0.00,WUHU216PEETBRO,2013-10-26 00:02:00,
2013-10-25 20:07:00,68.8,59.3,30.23,NNE,23,3.4,6.8,71,0.00,,,0.00,WUHU216PEETBRO,2013-10-26 00:07:00,
2013-10-25 20:12:00,68.7,59.4,30.23,North,359,4.5,8.7,72,0.00,,,0.00,WUHU216PEETBRO,2013-10-26 00:12:00,
2013-10-25 20:17:00,68.4,59.4,30.23,NNE,18,5.2,8.7,73,0.00,,,0.00,WUHU216PEETBRO,2013-10-26 00:17:00,
2013-10-25 20:22:00,68.4,59.6,30.23,North,2,0.0,6.8,73,0.00,,,0.00,WUHU216PEETBRO,2013-10-26 00:22:00,
2013-10-25 20:27:00,68.2,59.7,30.24,NNE,14,4.3,6.8,74,0.00,,,0.00,WUHU216PEETBRO,2013-10-26 00:27:00,
2013-10-25 20:32:00,68.0,59.8,30.24,North,359,2.2,6.2,75,0.00,,,0.00,WUHU216PEETBRO,2013-10-26 00:32:00,
2013-10-25 20:37:00,67.7,59.8,30.24,NNE,21,0.0,5.5,75,0.00,,,0.00,WUHU216PEETBRO,2013-10-26 00:37:00,
2013-10-25 20:42:00,67.3,59.7,30.24,NNW,348,0.0,5.6,76,0.00,,,0.00,WUHU216PEETBRO,2013-10-26 00:42:00,
2013-10-25 20:47:00,67.1,59.8,30.24,North,355,4.3,5.6,77,0.00,,,0.00,WUHU216PEETBRO,2013-10-26 00:47:00,
2013-10-25 20:52:00,66.9,59.9,30.24,North,355,2.8,5.5,78,0.00,,,0.00,WUHU216PEETBRO,2013-10-26 00:52:00,
2013-10-25 20:57:00,66.7,60.0,30.24,NNW,333,2.9,5.7,79,0.00,,,0.00,WUHU216PEETBRO,2013-10-26 00:57:00,
2013-10-25 21:02:00,66.5,60.0,30.24,NNE,29,3.2,5.7,79,0.00,,,0.00,WUHU216PEETBRO,2013-10-26 01:02:00,
2013-10-25 21:07:00,66.3,60.0,30.24,North,359,0.0,6.4,80,0.00,,,0.00,WUHU216PEETBRO,2013-10-26 01:07:00,
2013-10-25 21:12:00,66.2,60.1,30.24,NNE,14,0.0,6.4,80,0.00,,,0.00,WUHU216PEETBRO,2013-10-26 01:12:00,
2013-10-25 21:17:00,66.0,60.1,30.24,North,7,2.9,5.8,81,0.00,,,0.00,WUHU216PEETBRO,2013-10-26 01:17:00,
2013-10-25 21:22:00,65.9,60.2,30.24,North,2,3.2,6.0,82,0.00,,,0.00,WUHU216PEETBRO,2013-10-26 01:22:00,
2013-10-25 21:27:00,65.8,60.2,30.25,North,9,0.0,6.0,82,0.00,,,0.00,WUHU216PEETBRO,2013-10-26 01:27:00,
2013-10-25 21:32:00,65.7,60.2,30.24,North,1,0.0,4.8,82,0.00,,,0.00,WUHU216PEETBRO,2013-10-26 01:32:00,
2013-10-25 21:37:00,65.5,60.2,30.24,North,359,0.0,4.7,83,0.00,,,0.00,WUHU216PEETBRO,2013-10-26 01:37:00,
2013-10-25 21:42:00,65.3,60.1,30.25,North,4,3.2,4.3,83,0.00,,,0.00,WUHU216PEETBRO,2013-10-26 01:42:00,
2013-10-25 21:47:00,65.2,60.2,30.25,North,8,0.0,4.3,84,0.00,,,0.00,WUHU216PEETBRO,2013-10-26 01:47:00,
2013-10-25 21:52:00,65.1,60.2,30.25,North,8,0.0,2.4,84,0.00,,,0.00,WUHU216PEETBRO,2013-10-26 01:52:00,
2013-10-25 21:57:00,64.9,60.1,30.25,North,8,0.0,0.0,85,0.00,,,0.00,WUHU216PEETBRO,2013-10-26 01:57:00,
2013-10-25 22:02:00,64.8,60.1,30.25,North,8,0.0,0.0,85,0.00,,,0.00,WUHU216PEETBRO,2013-10-26 02:02:00,
2013-10-25 22:07:00,64.7,60.2,30.25,North,8,0.0,0.0,85,0.00,,,0.00,WUHU216PEETBRO,2013-10-26 02:07:00,
2013-10-25 22:12:00,64.5,60.1,30.25,North,8,0.0,0.0,86,0.00,,,0.00,WUHU216PEETBRO,2013-10-26 02:12:00,
2013-10-25 22:17:00,64.5,60.2,30.26,North,2,0.0,4.2,86,0.00,,,0.00,WUHU216PEETBRO,2013-10-26 02:17:00,
2013-10-25 22:22:00,64.3,60.2,30.26,North,2,0.0,4.2,86,0.00,,,0.00,WUHU216PEETBRO,2013-10-26 02:22:00,
2013-10-25 22:27:00,64.2,60.2,30.26,North,9,0.0,3.2,87,0.00,,,0.00,WUHU216PEETBRO,2013-10-26 02:27:00,
2013-10-25 22:32:00,64.1,60.1,30.26,North,9,0.0,3.2,87,0.00,,,0.00,WUHU216PEETBRO,2013-10-26 02:32:00,
2013-10-25 22:37:00,64.0,60.2,30.26,North,7,0.0,4.1,87,0.00,,,0.00,WUHU216PEETBRO,2013-10-26 02:37:00,
2013-10-25 22:42:00,63.9,60.2,30.26,North,7,0.0,4.1,88,0.00,,,0.00,WUHU216PEETBRO,2013-10-26 02:42:00,
2013-10-25 22:47:00,63.8,60.2,30.26,North,7,0.0,0.0,88,0.00,,,0.00,WUHU216PEETBRO,2013-10-26 02:47:00,
2013-10-25 22:52:00,63.9,60.3,30.27,North,9,4.7,4.7,88,0.00,,,0.00,WUHU216PEETBRO,2013-10-26 02:52:00,
2013-10-25 22:57:00,63.8,60.3,30.27,North,9,0.0,4.7,88,0.00,,,0.00,WUHU216PEETBRO,2013-10-26 02:57:00,
2013-10-25 23:02:00,63.7,60.2,30.26,NNE,12,0.0,4.2,89,0.00,,,0.00,WUHU216PEETBRO,2013-10-26 03:02:00,
2013-10-25 23:07:00,63.5,60.1,30.26,North,9,0.0,4.3,89,0.00,,,0.00,WUHU216PEETBRO,2013-10-26 03:07:00,
2013-10-25 23:12:00,63.5,60.2,30.26,North,9,0.0,4.3,89,0.00,,,0.00,WUHU216PEETBRO,2013-10-26 03:12:00,
2013-10-25 23:17:00,63.4,60.2,30.27,North,9,0.0,0.0,89,0.00,,,0.00,WUHU216PEETBRO,2013-10-26 03:17:00,
2013-10-25 23:22:00,63.3,60.1,30.27,North,9,0.0,6.1,89,0.00,,,0.00,WUHU216PEETBRO,2013-10-26 03:22:00,
2013-10-25 23:27:00,63.2,60.1,30.27,NNE,14,0.0,6.1,90,0.00,,,0.00,WUHU216PEETBRO,2013-10-26 03:27:00,
2013-10-25 23:32:00,63.1,60.0,30.26,NNE,14,0.0,5.6,90,0.00,,,0.00,WUHU216PEETBRO,2013-10-26 03:32:00,
2013-10-25 23:37:00,63.0,59.9,30.26,NNE,14,0.0,0.0,90,0.00,,,0.00,WUHU216PEETBRO,2013-10-26 03:37:00,
2013-10-25 23:42:00,62.9,59.8,30.26,NNE,14,0.0,0.0,90,0.00,,,0.00,WUHU216PEETBRO,2013-10-26 03:42:00,
2013-10-25 23:47:00,62.8,59.8,30.26,NNE,14,0.0,0.0,90,0.00,,,0.00,WUHU216PEETBRO,2013-10-26 03:47:00,
2013-10-25 23:52:00,62.7,59.7,30.26,NNE,14,0.0,0.0,90,0.00,,,0.00,WUHU216PEETBRO,2013-10-26 03:52:00,
2013-10-25 23:57:00,62.6,59.7,30.25,NNE,14,0.0,0.0,90,0.00,,,0.00,WUHU216PEETBRO,2013-10-26 03:57:00,